Location: Nashville
(36.1660°N, 86.7840°W)
Time: 12:54:12
(UTC-05:00)

CAS-6 - Visible Passes

Search period start: 17 May 2022 00:00
Search period end: 27 May 2022 00:00
Orbit: 614 x 633 km, 97.9° (Epoch: 17 May)

Date Brightness Start Highest point End Pass type
(mag) Time Alt. Az. Time Alt. Az. Time Alt. Az.
17 May ? 22:07:26 16° ENE 22:07:26 16° ENE 22:09:38 10° NNE visible
17 May ? 23:44:41 25° NW 23:44:41 25° NW 23:46:49 10° NNW visible
18 May ? 22:26:04 24° NE 22:26:04 24° NE 22:28:49 10° NNE visible
19 May ? 00:03:19 17° WNW 00:03:19 17° WNW 00:04:49 10° NW visible
19 May ? 22:44:42 34° NE 22:44:42 34° NE 22:47:40 10° N visible
20 May ? 00:21:56 11° WNW 00:21:56 11° WNW 00:22:21 10° WNW visible
20 May ? 23:03:20 42° N 23:03:20 42° N 23:06:20 10° N visible
21 May ? 23:21:57 39° NNW 23:21:57 39° NNW 23:24:49 10° NNW visible
22 May ? 22:03:21 15° ENE 22:03:21 15° ENE 22:05:41 10° NNE visible
22 May ? 23:40:35 29° NW 23:40:35 29° NW 23:43:06 10° NNW visible
23 May ? 22:21:58 23° ENE 22:21:58 23° ENE 22:24:57 10° NNE visible
23 May ? 23:59:13 20° WNW 23:59:13 20° WNW 00:01:10 10° NW visible
24 May ? 22:40:36 34° NE 22:40:36 34° NE 22:43:51 10° N visible
25 May ? 00:17:51 13° WNW 00:17:51 13° WNW 00:18:50 10° NW visible
25 May ? 22:59:14 46° NNE 22:59:14 46° NNE 23:02:32 10° N visible
26 May ? 23:17:52 47° NNW 23:17:52 47° NNW 23:21:03 10° NNW visible
